Wind_Speed
19 21 22 22 22 22 21 21 21 21 21 21 22 23 24 24 24 24 24 23 23 22 22 22 21 20 20 19 19 19 19 19 19 19 19 20 22 23 24 25 25 26
16 18 19 20 21 21 21 21 20 20 19 19 19 20 20 21 21 22 22 21 21 20 20 20 19 18 18 18 17 17 17 17 17 17 17 18 19 20 21 21 22 22
14 15 16 17 18 19 20 20 20 20 19 19 18 18 18 18 18 18 19 19 19 18 18 17 17 16 16 16 16 16 15 15 16 16 16 16 17 17 18 18 18 19
12 12 13 14 15 16 17 18 18 18 18 18 18 18 17 16 16 16 16 16 16 16 16 15 14 14 14 14 13 13 13 14 14 14 14 15 15 15 15 15 16 16
11 11 11 11 12 13 14 15 15 16 16 17 17 17 17 16 16 15 15 15 15 15 14 13 13 12 11 11 11 11 11 11 11 12 12 12 12 13 13 13 13 13
11 11 10 10 10 10 11 12 13 13 14 14 14 15 15 15 15 15 14 14 14 14 14 13 12 11 11 10 9 9 9 9 9 9 9 9 9 9 10 10 10 10
11 10 10 10 10 9 9 9 10 10 10 11 11 11 12 12 13 13 13 13 13 12 12 13 13 12 11 10 9 8 7 7 7 7 7 7 7 7 7 7 7 7
11 11 10 9 9 9 8 8 7 7 7 7 8 8 9 9 9 10 10 10 11 10 10 10 11 11 11 10 10 9 9 8 7 8 7 7 7 7 6 6 6 6
13 12 11 10 9 8 8 7 6 6 5 5 4 5 5 6 5 6 6 7 7 8 8 8 7 8 8 8 8 8 9 9 9 9 9 10 10 10 9 8 8 7
16 14 13 11 10 9 8 7 7 6 5 4 4 3 3 3 2 3 3 3 4 5 5 6 6 5 5 5 5 6 6 6 7 8 8 9 10 10 10 10 10 9
19 17 15 14 13 11 10 9 8 8 7 6 5 5 5 4 3 2 1 1 0 1 3 3 4 5 4 3 2 3 3 3 4 4 4 5 7 8 9 9 9 9
22 21 20 19 18 17 15 14 12 11 9 9 8 7 7 7 6 5 4 4 3 2 2 2 3 3 4 3 2 1 1 1 1 0 0 0 2 4 6 7 7 7
25 24 24 24 23 22 20 18 17 15 13 11 10 9 9 9 8 8 7 7 6 5 5 4 4 4 4 3 3 3 4 5 5 4 4 4 4 2 1 3 5 5
29 28 28 27 26 24 21 19 18 17 15 12 10 10 10 10 10 10 10 10 9 8 7 7 7 7 7 6 5 5 6 8 8 7 6 7 8 7 5 4 2 2
33 33 32 31 29 26 22 21 21 20 17 14 12 13 14 14 14 14 14 13 11 10 10 9 9 9 9 9 9 8 9 9 10 9 7 7 8 9 8 8 6 2
37 36 36 34 32 29 26 24 24 23 21 19 18 19 20 19 19 20 20 17 15 13 12 10 11 13 14 14 13 12 11 11 10 10 9 8 9 10 10 8 8 7
41 39 38 37 34 32 30 28 27 26 24 23 23 24 24 23 22 21 22 21 20 18 15 14 16 17 17 18 18 16 14 13 13 13 12 11 13 14 13 11 11 10
42 41 40 39 37 35 34 32 31 29 28 26 26 26 26 24 22 20 20 21 22 22 21 22 23 21 20 21 21 20 18 17 16 16 15 15 17 18 18 16 15 14
43 42 42 40 40 39 37 35 33 32 31 30 30 29 27 26 24 21 21 22 22 22 24 28 29 27 26 25 22 21 22 21 19 19 18 18 20 23 23 22 20 18
45 45 44 43 43 42 40 38 36 35 34 33 33 33 31 29 28 25 25 25 25 25 27 30 30 28 28 27 25 24 25 23 21 20 20 21 22 24 26 27 26 24
47 47 47 47 46 46 45 43 40 39 38 37 37 35 34 33 31 29 29 28 27 27 29 32 31 27 26 28 28 28 26 24 22 21 21 22 23 25 28 30 30 29
47 48 49 50 49 49 48 47 44 43 42 41 40 38 37 36 34 32 33 32 31 30 30 32 33 31 28 28 29 28 26 25 25 24 23 23 25 27 30 32 33 32
50 50 51 51 51 51 51 50 48 46 44 43 42 41 39 39 37 36 35 36 35 34 34 35 36 35 34 33 31 29 27 27 28 28 27 27 29 31 33 34 35 35
53 52 53 52 51 52 52 51 50 48 47 45 44 43 42 42 43 41 39 38 37 35 34 35 36 35 36 36 36 35 31 30 32 33 32 30 30 32 35 36 37 38
55 54 55 54 54 53 54 53 52 50 48 47 47 47 46 45 45 46 44 42 41 39 36 35 35 35 35 36 39 39 37 36 37 38 37 35 32 33 36 37 39 41
56 56 57 58 57 55 54 54 53 50 48 48 50 51 50 48 47 48 48 47 45 43 41 39 38 37 37 38 40 40 40 41 42 41 40 40 39 39 40 39 41 45
Wind_Direction
101 99 97 95 94 93 94 96 98 99 99 99 98 97 96 97 98 101 103 105 107 108 109 110 110 110 109 110 109 106 103 100 97 93 89 85 83 84 84 83 80 77
110 107 104 102 99 97 96 96 96 98 99 99 99 99 98 98 97 99 101 103 106 107 108 109 110 109 108 107 106 105 103 101 98 95 91 87 85 85 85 84 83 80
122 117 113 109 107 103 101 99 97 97 97 97 99 100 99 99 99 98 99 102 105 107 109 110 110 111 110 108 106 104 103 100 98 96 93 90 87 86 86 86 86 83
137 131 125 119 115 111 107 104 101 99 98 96 96 97 97 97 97 97 98 101 103 107 111 113 114 114 113 112 110 109 107 104 101 98 96 94 91 89 89 88 88 86
150 146 141 133 127 121 116 112 107 104 101 99 97 95 94 92 91 92 92 94 98 102 106 110 113 115 116 115 114 112 111 109 107 105 102 100 97 95 94 91 89 88
160 157 154 150 145 137 130 123 118 113 107 103 100 96 93 91 87 86 85 86 89 91 95 98 101 103 106 109 112 113 113 111 108 107 105 102 101 98 95 93 91 87
173 168 165 162 160 155 149 141 132 126 120 112 106 101 96 92 88 85 82 80 81 83 84 86 87 89 89 92 96 100 104 104 101 99 97 95 93 91 89 86 85 82
187 183 179 175 171 166 162 158 152 145 138 128 121 114 106 99 93 89 83 78 76 76 77 78 79 81 81 81 82 85 88 88 89 89 86 85 83 82 81 78 75 72
202 198 196 192 184 178 170 165 163 161 158 153 145 135 125 114 102 94 86 77 72 69 70 72 75 79 82 81 78 78 80 81 83 85 86 87 87 84 81 78 77 76
209 209 208 206 200 194 187 181 174 167 165 167 172 173 158 144 128 113 96 77 64 54 51 54 60 68 78 87 89 82 79 77 75 78 83 91 94 89 81 73 69 72
212 213 213 212 208 204 199 194 188 179 176 176 179 185 186 188 193 188 187 188 94 24 12 15 23 29 33 49 77 88 83 76 69 68 77 93 96 88 81 73 68 66
216 217 217 216 213 210 206 202 197 191 189 189 190 193 196 200 205 205 210 214 219 242 277 299 322 338 349 357 5 9 352 334 303 249 344 108 124 98 85 79 73 65
221 223 224 224 222 219 214 211 207 201 197 197 200 202 208 213 214 212 211 210 211 222 236 252 268 278 282 292 309 319 319 311 288 268 273 287 281 281 82 95 82 61
224 227 227 229 231 231 228 224 221 215 209 207 213 220 222 222 223 222 218 214 213 218 225 238 252 260 263 261 264 282 296 303 303 297 284 282 289 293 275 230 159 64
226 229 231 231 232 234 235 232 229 228 222 214 221 240 243 233 230 234 231 223 217 220 226 233 242 250 259 264 266 273 280 286 300 309 301 281 284 291 280 256 235 233
227 231 233 235 234 234 236 233 230 232 230 217 213 229 242 241 239 246 248 241 230 224 222 229 238 241 245 248 248 253 261 264 273 286 292 288 288 288 283 266 244 236
229 232 234 237 238 237 238 236 232 233 234 228 220 221 230 236 239 246 254 253 247 240 233 231 232 233 240 246 242 240 247 254 258 266 272 275 279 283 283 277 270 262
230 233 236 238 239 239 239 239 237 236 234 235 233 229 229 233 235 240 249 252 250 247 247 247 239 230 233 242 242 239 243 248 253 260 267 272 275 279 282 282 281 277
232 234 236 238 239 242 242 241 242 243 240 236 236 236 235 237 237 238 242 245 242 238 244 256 257 248 242 238 235 236 240 244 249 254 260 267 273 279 281 280 276 273
233 234 237 238 240 243 244 244 244 246 245 240 239 238 239 240 240 241 243 246 244 237 238 248 256 258 255 248 238 234 237 239 243 247 252 259 268 274 277 276 274 272
234 235 237 238 239 241 244 246 246 246 245 244 243 240 241 242 243 245 247 250 251 248 244 245 247 250 257 258 251 241 237 237 239 242 247 254 261 267 270 272 273 272
234 236 238 239 239 240 242 245 247 246 245 245 243 241 241 241 241 243 247 251 255 255 253 251 248 244 248 258 261 254 245 242 244 247 250 254 259 263 266 270 272 271
231 233 236 240 241 242 242 243 245 246 246 245 244 243 244 241 239 241 245 250 255 258 259 257 253 247 247 254 261 259 251 247 248 250 252 254 258 262 265 268 271 270
230 231 234 238 241 243 244 244 244 246 247 246 244 244 246 244 241 242 244 247 251 256 261 262 258 253 251 253 254 254 252 250 250 250 251 250 253 260 264 265 266 267
230 231 233 235 239 241 243 244 243 244 246 246 244 243 245 245 243 243 246 248 250 252 256 260 260 257 255 254 253 252 250 250 250 251 251 250 249 253 259 261 262 265
231 232 233 234 237 239 241 242 242 241 243 247 246 243 244 244 243 244 247 249 250 250 252 254 256 257 256 256 256 254 251 249 249 250 251 252 251 250 253 256 259 262
Height
10998 10997 10996 10996 10996 10995 10995 10996 10996 10996 10996 10996 10996 10996 10996 10996 10996 10997 10997 10997 10997 10998 10998 10998 10998 10998 10998 10999 10999 10998 10998 10997 10997 10997 10997 10997 10996 10996 10995 10994 10994 10994
11000 10999 10998 10998 10997 10997 10997 10997 10997 10997 10997 10997 10997 10997 10997 10998 10998 10998 10999 10999 10999 11000 11000 11000 11000 11000 11000 11000 11000 11000 11000 11000 11000 11000 11000 10999 10999 10998 10998 10997 10997 10996
11001 11000 11000 10999 10999 10998 10998 10998 10999 10999 10999 10999 10999 10999 10999 10999 11000 11000 11000 11000 11001 11001 11001 11002 11002 11002 11002 11002 11002 11002 11002 11002 11002 11002 11001 11001 11001 11000 11000 11000 10999 10999
11001 11001 11001 11001 11000 11000 10999 10999 11000 11000 11000 11000 11000 11000 11000 11000 11001 11001 11001 11002 11002 11002 11002 11003 11003 11003 11003 11003 11004 11004 11004 11004 11004 11003 11003 11003 11003 11002 11002 11002 11002 11001
11001 11002 11002 11002 11001 11001 11001 11001 11001 11001 11001 11001 11001 11002 11002 11002 11002 11003 11003 11003 11003 11003 11004 11004 11004 11004 11005 11005 11005 11005 11005 11005 11005 11005 11005 11004 11004 11004 11004 11004 11004 11004
11001 11002 11002 11002 11002 11002 11002 11002 11002 11002 11002 11002 11003 11003 11003 11003 11004 11004 11004 11004 11005 11005 11005 11005 11005 11006 11006 11006 11006 11006 11006 11006 11006 11006 11006 11006 11006 11005 11005 11005 11005 11005
11001 11001 11002 11002 11002 11002 11002 11003 11003 11003 11003 11003 11004 11004 11004 11004 11005 11005 11005 11005 11006 11006 11006 11006 11006 11007 11007 11007 11007 11007 11007 11007 11007 11007 11007 11007 11007 11006 11006 11006 11006 11006
11001 11001 11001 11002 11002 11002 11002 11003 11004 11004 11004 11004 11005 11005 11005 11005 11005 11006 11006 11006 11006 11006 11007 11007 11007 11007 11008 11008 11008 11008 11008 11008 11008 11008 11008 11007 11007 11007 11007 11007 11006 11006
11000 11000 11001 11001 11001 11002 11002 11003 11003 11004 11004 11005 11005 11005 11005 11005 11006 11006 11006 11006 11007 11007 11007 11007 11008 11008 11008 11008 11009 11009 11009 11009 11008 11009 11008 11008 11008 11007 11007 11007 11006 11006
10998 10999 10999 11000 11000 11000 11001 11001 11002 11003 11004 11004 11005 11005 11005 11006 11006 11006 11006 11007 11007 11007 11008 11008 11008 11008 11008 11009 11009 11009 11009 11009 11009 11009 11009 11008 11008 11007 11007 11007 11006 11006
10996 10996 10997 10998 10998 10998 10999 11000 11000 11001 11002 11003 11004 11004 11005 11005 11005 11006 11006 11006 11007 11007 11008 11008 11008 11008 11009 11009 11009 11009 11009 11009 11009 11009 11009 11009 11008 11008 11007 11007 11007 11006
10994 10994 10995 10995 10995 10996 10996 10997 10997 10999 11000 11001 11002 11003 11003 11004 11004 11005 11005 11005 11006 11007 11007 11008 11008 11008 11009 11009 11009 11009 11009 11009 11009 11009 11009 11009 11009 11008 11008 11007 11007 11006
10992 10992 10993 10994 10994 10994 10994 10994 10995 10995 10997 10998 10999 11000 11002 11002 11003 11003 11004 11004 11004 11005 11006 11006 11007 11008 11008 11009 11009 11009 11010 11010 11009 11009 11009 11008 11008 11008 11008 11007 11007 11006
10990 10991 10991 10992 10993 10994 10995 10995 10994 10994 10994 10995 10997 10998 10999 11000 11001 11001 11002 11002 11003 11003 11004 11005 11006 11006 11007 11008 11009 11009 11010 11010 11009 11009 11009 11008 11007 11007 11008 11007 11007 11006
10988 10988 10989 10990 10991 10992 10994 10995 10994 10994 10994 10993 10995 10997 10998 10998 10998 10998 10999 11000 11000 11001 11002 11003 11004 11005 11006 11007 11008 11009 11009 11009 11009 11008 11008 11008 11007 11007 11007 11006 11006 11006
10985 10985 10986 10987 10988 10990 10992 10992 10991 10992 10992 10991 10991 10994 10995 10995 10995 10995 10996 10997 10998 10998 10999 11001 11002 11003 11004 11004 11005 11007 11008 11008 11008 11007 11007 11007 11006 11006 11006 11005 11005 11005
10981 10982 10984 10985 10986 10988 10989 10989 10989 10990 10991 10990 10989 10989 10990 10991 10991 10991 10992 10993 10994 10995 10997 10998 10999 11000 11001 11002 11003 11005 11006 11006 11006 11006 11005 11005 11005 11006 11005 11005 11004 11004
10979 10980 10982 10983 10984 10984 10985 10986 10986 10986 10988 10989 10988 10987 10987 10987 10987 10988 10988 10989 10990 10992 10994 10995 10995 10996 10997 10998 11000 11002 11003 11004 11004 11004 11003 11003 11004 11004 11003 11003 11002 11002
10976 10978 10979 10980 10980 10981 10981 10982 10983 10984 10985 10986 10986 10987 10986 10986 10984 10984 10984 10984 10986 10988 10990 10990 10991 10992 10993 10995 10996 10998 10999 11000 11001 11001 11002 11001 11002 11001 11000 11000 11000 10999
10973 10975 10976 10976 10977 10977 10978 10978 10979 10980 10982 10982 10983 10984 10984 10983 10981 10980 10979 10980 10982 10985 10985 10984 10986 10989 10991 10992 10993 10994 10995 10996 10997 10998 10998 10999 10999 10999 10997 10996 10995 10996
10969 10971 10971 10972 10972 10973 10973 10974 10975 10977 10978 10979 10979 10980 10981 10980 10979 10979 10978 10979 10980 10981 10982 10982 10983 10986 10988 10989 10991 10992 10992 10993 10993 10993 10994 10995 10996 10995 10994 10992 10991 10991
10965 10965 10965 10966 10967 10968 10969 10969 10971 10972 10973 10974 10975 10976 10977 10977 10977 10977 10976 10976 10977 10978 10979 10979 10980 10983 10985 10986 10987 10989 10990 10990 10990 10990 10990 10991 10991 10991 10989 10988 10987 10986
10958 10959 10960 10961 10962 10964 10964 10965 10966 10967 10969 10970 10971 10972 10972 10973 10973 10972 10972 10973 10974 10975 10975 10975 10976 10978 10980 10982 10983 10985 10986 10987 10987 10986 10987 10987 10986 10985 10984 10983 10982 10982
10953 10954 10955 10957 10958 10959 10960 10961 10962 10963 10964 10966 10968 10968 10967 10968 10968 10967 10967 10968 10969 10970 10971 10970 10972 10975 10976 10977 10978 10979 10982 10983 10983 10982 10982 10981 10980 10978 10977 10977 10977 10976
10947 10949 10950 10951 10952 10953 10955 10956 10957 10958 10959 10961 10962 10962 10962 10962 10962 10961 10962 10963 10964 10965 10966 10966 10967 10970 10972 10972 10972 10974 10977 10978 10977 10976 10977 10977 10976 10973 10969 10969 10969 10970
10941 10943 10943 10944 10945 10946 10948 10949 10950 10953 10955 10955 10955 10955 10955 10955 10955 10955 10956 10957 10958 10959 10961 10962 10962 10964 10967 10967 10967 10969 10971 10971 10970 10971 10972 10972 10972 10970 10966 10965 10963 10961